Hourly Data Report for May 30, 2021

OTTAWA INTL A
ONTARIO
Current Station Operator: NAVCAN

45°19'00.000" N
75°40'00.000" W
114.90 m
6106001
71628
YOW

Download Data

Hourly Data (May 2021)
Hourly Data Report for May 30, 2021
TIME
LST
Temp Definition
°C
Dew Point Definition
°C
Rel Hum Definition
%
Precip. Amount Definition
mm

Wind Dir Definition
10's deg

Wind Spd Definition
km/h
Visibility Definition
km
Stn Press Definition
kPa
Hmdx Definition


Wind Chill Definition


Weather Definition


00:00 5.8 -3.2 52   2 10 24.1 101.05     LegendNANA
01:00 5.9 -1.7 58   2 9 24.1 101.07     Clear
02:00 4.7 -0.9 67   2 9 24.1 101.11     LegendNANA
03:00 3.9 -0.5 73   3 11 24.1 101.16     LegendNANA
04:00 3.3 -0.1 78   3 16 24.1 101.18     Clear
05:00 4.5 0.8 77   3 16 24.1 101.22     LegendNANA
06:00 8.5 0.9 59   4 21 24.1 101.24     LegendNANA
07:00 11.2 0.3 47   5 21 24.1 101.26     Clear
08:00 13.3 1.2 43   6 17 24.1 101.29     LegendNANA
09:00 15.3 1.4 39   5 15 24.1 101.31     LegendNANA
10:00 16.5 1.8 37   10 18 24.1 101.28     Mainly Clear
11:00 18.8 1.5 31   8 23 24.1 101.18     LegendNANA
12:00 19.0 -0.9 26   7 18 24.1 101.13     LegendNANA
13:00 19.0 0.1 28   6 17 24.1 101.08     Mostly Cloudy
14:00 20.0 0.5 27   11 18 24.1 101.05     LegendNANA
15:00 19.9 -0.2 26   7 25 24.1 101.02     LegendNANA
16:00 19.4 0.0 27   8 25 24.1 101.02     Mainly Clear
17:00 18.1 0.5 30   10 17 24.1 101.02     LegendNANA
18:00 16.9 2.5 38   11 23 24.1 101.03     LegendNANA
19:00 14.8 2.1 42   9 19 24.1 101.08     Mostly Cloudy
20:00 13.2 4.0 53   11 14 24.1 101.11     LegendNANA
21:00 11.1 4.0 62   11 11 24.1 101.11     LegendNANA
22:00 8.5 3.5 71   10 7 24.1 101.08     Mainly Clear
23:00 7.5 3.8 77   4 4 24.1 101.05     LegendNANA

Notes on Data Quality.

Legend

  • E = Estimated
  • M = Missing
  • NA = Not Available*
  • [empty] = Indicates an unobserved value
Date modified: